Regional Weather Roundup
Issued by NWS

Home | Current Version | Previous Version | Text Only | Print | Product List | Glossary On
Versions: 1 2 3 4 5 6 7 8 9 10 11 12 13 14 15 16 17 18 19 20 21 22 23 24 25 26 27 28 29 30 31 32 33 34 35 36 37 38 39 40 41 42 43 44 45 46 47 48 49 50
000
ASUS45 KBOU 270807
RWRCO

WEATHER ROUNDUP FOR COLORADO
NATIONAL WEATHER SERVICE DENVER/BOULDER CO
100 AM MST TUE JAN 27 2015

NOTE: "FAIR" INDICATES FEW OR NO CLOUDS BELOW 12000 FEET WITH NO
SIGNIFICANT WEATHER AND/OR OBSTRUCTIONS TO VISIBILITY.

COZ001>005-013-030-031-270900-
...NORTHWEST COLORADO...

CITY           SKY/WX    TMP DP  RH WIND       PRES   REMARKS
CRAIG            N/A     15  12  88 VRB3      30.35S
HAYDEN         PTCLDY    25  19  80 S8        30.33R WCI  16
MEEKER         PTCLDY    20  16  84 NE5       30.35F WCI  13
MOUNT WERNER   NOT AVBL
STEAMBOAT SPGS PTCLDY    26  22  85 CALM      30.35S
WALDEN         PTCLDY    18  12  79 SE7       30.39F WCI   8
$$

COZ006>008-011-270900-
...WEST CENTRAL VALLEYS...

CITY           SKY/WX    TMP DP  RH WIND       PRES   REMARKS
GRAND JUNCTION CLEAR     33  26  75 SE12      30.31F WCI  24
MONTROSE       PTCLDY    30  22  72 S12       30.37S WCI  20
EAGLE          PTCLDY    23  21  93 E6        30.45R WCI  16
RIFLE          PTCLDY    27  23  85 SW5       30.37S WCI  22
DELTA          PTCLDY    31  24  74 NE3       30.35F
NUCLA          PTCLDY    34  27  75 E6        30.37S WCI  29
$$

COZ017>023-064>068-270900-
...SOUTHWEST COLORADO...

CITY           SKY/WX    TMP DP  RH WIND       PRES   REMARKS
DURANGO        MOCLDY    32  24  72 CALM      30.38S
CORTEZ         CLEAR     27  22  81 CALM      30.33F
PAGOSA SPRINGS MOCLDY    28  22  78 CALM      30.42F
TELLURIDE      PTCLDY    37  19  46 CALM      30.44S
WOLF CREEK PAS NOT AVBL
$$

COZ009-010-012-014-032>034-037-058>063-270900-
...CENTRAL COLORADO...

CITY           SKY/WX    TMP DP  RH WIND       PRES   REMARKS
ASPEN          PTCLDY    28  17  63 SE8       30.39R WCI  20
BUENA VISTA    CLEAR     27  20  75 CALM      30.42S
COPPER MTN     PTCLDY    37   9  30 S14G21    30.54F
BERTHOUD PASS  FAIR      32  27  80 W7        30.57F WCI  26
COTTONWOOD PAS CLEAR     45   9  23 CALM      30.46F
GUNNISON       PTCLDY     3  -6  66 CALM      30.50S
KREMMLING      PTCLDY    10   7  85 CALM      30.47S
LEADVILLE      PTCLDY    24  11  57 N3        30.46S
MONARCH PASS   PTCLDY    32  12  43 SW23      30.65S WCI  19
SALIDA         CLEAR     33  20  59 CALM      30.48S
SUNLIGHT       MOCLDY    36  18  48 CALM        N/A
WILKERSON PASS PTCLDY    34  12  40 SW10G16   30.53F WCI  26
$$

COZ069>075-270900-
...SAN LUIS VALLEY/SANGRE DE CRISTO MOUNTAINS...

CITY           SKY/WX    TMP DP  RH WIND       PRES   REMARKS
ALAMOSA        PTCLDY    13   9  84 W3        30.43S
LA VETA PASS   NOT AVBL
SAGUACHE       PTCLDY    28  19  69 NW13      30.44F WCI  18
$$

COZ035-036-038>040-270900-
...NORTHERN COLORADO FRONT RANGE...

CITY           SKY/WX    TMP DP  RH WIND       PRES   REMARKS
DENVER INTL AP CLEAR     49  25  39 SW17      30.20F
DMNS CITY PARK   N/A     49  21  32 SW9G17    30.20S
AURORA         CLEAR     46  24  41 S13       30.22S
FRONT RANGE AP NOT AVBL
ERIE MUNI ARPT CLEAR     34  26  71 S5        30.19S WCI  30
BOULDER MUN AP CLEAR     48  21  34 CALM      30.18F
CENTENNIAL     PTCLDY    45  23  42 CALM      30.23F
BROOMFIELD     CLEAR     50  21  32 CALM      30.21S
FORT COLLINS   CLEAR     37  23  56 CALM      30.18F
LONGMONT       CLEAR     36  24  62 W5        30.20F
$$

COZ041-046-047-076>085-087-088-270900-
...PIKES PEAK/PALMER DIVIDE AND SOUTHERN FOOTHILLS...

CITY           SKY/WX    TMP DP  RH WIND       PRES   REMARKS
COLO. SPRINGS  PTCLDY    35  25  66 NE8       30.28F WCI  29
A. F. ACADEMY  PTCLDY    32  23  69 N9        30.29F WCI  25
ELLICOTT       PTCLDY   N/A N/A N/A CALM      30.26F
FALCON         PTCLDY    39  22  51 W8        30.30F
FORT CARSON    PTCLDY    40  24  52 N10       30.25F
LIMON          CLEAR     27  22  81 N9        30.22F WCI  18
MONUMENT HILL  CLEAR     41  23  48 SW9       30.29F
TRINIDAD       CLEAR     42  24  49 SW21      30.28F
$$

COZ042>045-048>051-090-091-270900-
...NORTHEAST COLORADO...

CITY           SKY/WX    TMP DP  RH WIND       PRES   REMARKS
GREELEY ARPT   CLEAR     28  19  69 CALM      30.16F
AKRON          CLEAR     40  30  67 W14       30.15F
BURLINGTON     CLEAR     40  29  64 W13       30.15F
WRAY           PTCLDY    34  29  83 W6        30.11F WCI  29
STERLING       CLEAR     34  32  93 SW9       30.13S WCI  26
HOLYOKE        PTCLDY    36  30  80 W9        30.10S
FORT MORGAN    CLEAR     38  28  64 W6        30.16F
$$

COZ086-089-092>099-270900-
...SOUTHEAST COLORADO...

CITY           SKY/WX    TMP DP  RH WIND       PRES   REMARKS
PUEBLO         CLEAR     32  27  81 W6        30.23F WCI  26
LA JUNTA       CLEAR     41  30  65 SW7       30.21F
LAMAR          CLEAR     40  33  76 SW10      30.17F
SPRINGFIELD      N/A     40  28  62 W5        30.20F
$$



USA.gov is the U.S. government's official web portal to all federal, state and local government web resources and services.